GW2042 Weather Reports


time (UTC)temp
C
wind
direction
speed
KPH
gust
KPH
rain 1hr
cm
rain 24hr
cm
rain mn
cm
humidity
%
barometer
mb
20260506071015 13 310 3.2 12.9 0.00 0.00 0.00 84 1010.8
20260506070515 13 336 4.8 12.9 0.00 0.00 0.00 84 1011.0
20260506062515 13 339 0.0 6.4 0.00 0.00 0.00 82 1010.1
20260506062016 13 16 1.6 6.4 0.00 0.00 0.00 82 1010.2
20260506061546 13 0 1.6 6.4 0.00 0.00 0.00 82 1010.1
20260506061015 13 0 0.0 6.4 0.00 0.00 0.00 81 1010.1
20260506060519 13 355 1.6 6.4 0.00 0.00 0.00 81 1010.1
20260506051016 15 325 3.2 14.5 0.00 0.00 0.00 78 1010.6
20260506050529 15 345 3.2 12.9 0.00 0.00 0.00 78 1010.6
20260506045016 15 347 1.6 12.9 0.00 0.00 0.00 77 1010.5
20260506044539 16 360 3.2 12.9 0.00 0.00 0.00 77 1010.6
20260506044015 16 342 1.6 14.5 0.00 0.00 0.00 76 1010.5
20260506043515 16 5 3.2 14.5 0.00 0.00 0.00 77 1010.4
20260506043039 16 337 3.2 11.3 0.00 0.00 0.00 77 1010.4
20260506042515 16 348 3.2 12.9 0.00 0.00 0.00 77 1010.5
20260506042015 16 325 1.6 12.9 0.00 0.00 0.00 76 1010.4
20260506041535 16 5 1.6 16.1 0.00 0.00 0.00 75 1010.3
20260506041014 17 102 4.8 16.1 0.00 0.00 0.00 75 1010.4
20260506040515 17 126 3.2 11.3 0.00 0.00 0.00 75 1010.2
20260506040033 17 11 1.6 9.7 0.00 0.00 0.00 75 1010.1
20260506035518 17 76 1.6 9.7 0.00 0.00 0.00 74 1010.2
20260506035017 17 28 1.6 12.9 0.00 0.00 0.00 74 1010.1
20260506034530 17 314 3.2 12.9 0.00 0.00 0.00 73 1010.0
20260506034016 17 0 1.6 14.5 0.00 0.00 0.00 73 1010.1
20260506033515 17 341 4.8 14.5 0.00 0.00 0.00 73 1010.2
20260506033029 18 111 1.6 8.0 0.00 0.00 0.00 73 1010.2
20260506032515 18 350 4.8 14.5 0.00 0.00 0.00 73 1010.1
20260506032016 18 332 3.2 14.5 0.00 0.00 0.00 73 1010.1
20260506031544 18 346 4.8 14.5 0.00 0.00 0.00 73 1009.9
20260506031015 18 343 3.2 9.7 0.00 0.00 0.00 73 1009.7
20260506030515 18 0 1.6 12.9 0.00 0.00 0.00 73 1009.7
20260506030032 18 11 3.2 12.9 0.00 0.00 0.00 72 1009.4
20260506025519 18 324 0.0 8.0 0.00 0.00 0.00 72 1009.1
20260506025015 18 345 1.6 8.0 0.00 0.00 0.00 71 1009.0
20260506024541 18 0 1.6 6.4 0.00 0.00 0.00 71 1009.0
20260506024015 18 355 0.0 6.4 0.00 0.00 0.00 70 1008.9
20260506023517 19 19 1.6 8.0 0.00 0.00 0.00 70 1008.6
20260506023030 19 355 3.2 8.0 0.00 0.00 0.00 69 1008.5
20260506022518 19 109 1.6 8.0 0.00 0.00 0.00 69 1008.6
20260506022015 19 0 0.0 9.7 0.00 0.00 0.00 69 1008.5
20260506021533 20 0 1.6 9.7 0.00 0.00 0.00 68 1008.3
20260506021017 20 342 1.6 11.3 0.00 0.00 0.00 67 1008.1
20260506020514 20 40 1.6 11.3 0.00 0.00 0.00 67 1008.0
20260506020032 20 295 3.2 11.3 0.00 0.00 0.00 67 1007.8
20260506015515 20 330 3.2 16.1 0.00 0.00 0.00 67 1007.7
20260506015019 20 274 3.2 16.1 0.00 0.00 0.00 67 1007.7
20260506014532 20 347 3.2 16.1 0.00 0.00 0.00 67 1007.6
20260506014017 21 336 3.2 14.5 0.00 0.00 0.00 67 1007.6
20260506013515 21 66 3.2 12.9 0.00 0.00 0.00 68 1007.3
20260506013029 21 21 1.6 12.9 0.00 0.00 0.00 68 1007.2
20260506012515 21 355 1.6 9.7 0.00 0.00 0.00 67 1006.8
20260506012018 22 343 3.2 16.1 0.00 0.00 0.00 67 1006.7
20260506011535 22 59 3.2 16.1 0.00 0.00 0.00 66 1006.8
20260506011015 22 5 3.2 12.9 0.00 0.00 0.00 65 1006.7
20260506010515 22 5 3.2 16.1 0.00 0.00 0.00 65 1006.5
20260506010034 23 5 3.2 16.1 0.00 0.00 0.00 64 1006.4
20260506005513 23 324 3.2 12.9 0.00 0.00 0.00 63 1006.6
20260506005014 23 345 3.2 16.1 0.00 0.00 0.00 63 1006.5
20260506004534 23 49 4.8 16.1 0.00 0.00 0.00 62 1006.3
20260506004015 24 26 3.2 12.9 0.00 0.00 0.00 62 1006.3
20260506003515 24 20 1.6 19.3 0.00 0.00 0.00 61 1006.0
20260506003030 25 296 4.8 19.3 0.00 0.00 0.00 59 1006.3
20260506002515 26 325 4.8 19.3 0.00 0.00 0.00 59 1006.3
20260506002014 26 24 4.8 16.1 0.00 0.00 0.00 59 1006.3
20260506001536 26 59 1.6 16.1 0.00 0.00 0.00 59 1005.8
20260506001015 27 29 4.8 14.5 0.00 0.00 0.00 58 1005.7
20260506000514 27 75 1.6 20.9 0.00 0.00 0.00 57 1005.7
20260506000035 27 93 4.8 20.9 0.00 0.00 0.00 56 1005.7
20260505235515 27 52 3.2 17.7 0.00 0.00 0.00 54 1005.8
20260505235015 28 360 3.2 19.3 0.00 0.00 0.00 51 1005.8
20260505234532 30 39 6.4 19.3 0.00 0.00 0.00 47 1005.9
20260505234018 31 336 3.2 12.9 0.00 0.00 0.00 48 1005.8
20260505233515 31 263 4.8 14.5 0.00 0.00 0.00 45 1005.7
20260505233030 31 229 6.4 16.1 0.00 0.00 0.00 45 1005.5
20260505232517 31 222 4.8 16.1 0.00 0.00 0.00 45 1005.4
20260505232020 31 206 4.8 14.5 0.00 0.00 0.00 47 1005.3
20260505231534 31 198 4.8 14.5 0.00 0.00 0.00 46 1005.2
20260505231027 31 207 4.8 14.5 0.00 0.00 0.00 45 1005.1
20260505230514 31 182 3.2 9.7 0.00 0.00 0.00 48 1005.1
20260505230035 31 0 3.2 9.7 0.00 0.00 0.00 46 1005.1
20260505225515 31 200 3.2 11.3 0.00 0.00 0.00 46 1005.1
20260505225015 31 0 1.6 11.3 0.00 0.00 0.00 46 1005.1
20260505224532 32 176 3.2 12.9 0.00 0.00 0.00 43 1005.2
20260505224014 32 192 4.8 12.9 0.00 0.00 0.00 44 1005.2
20260505223517 32 240 6.4 12.9 0.00 0.00 0.00 42 1005.2
20260505223035 32 173 4.8 12.9 0.00 0.00 0.00 44 1005.2
20260505222514 31 261 6.4 16.1 0.00 0.00 0.00 45 1005.1
20260505222016 32 147 4.8 16.1 0.00 0.00 0.00 44 1005.2
20260505221530 31 215 6.4 16.1 0.00 0.00 0.00 45 1005.2
20260505221015 31 160 3.2 11.3 0.00 0.00 0.00 45 1005.2
20260505220514 31 201 4.8 12.9 0.00 0.00 0.00 46 1005.2
20260505220031 31 206 4.8 16.1 0.00 0.00 0.00 45 1005.3
20260505215515 32 270 6.4 16.1 0.00 0.00 0.00 43 1005.3
20260505215015 32 213 4.8 12.9 0.00 0.00 0.00 43 1005.2
20260505214544 32 223 4.8 12.9 0.00 0.00 0.00 44 1005.3
20260505214015 32 235 3.2 14.5 0.00 0.00 0.00 43 1005.2
20260505213518 31 219 6.4 14.5 0.00 0.00 0.00 45 1005.2
20260505213030 31 239 6.4 14.5 0.00 0.00 0.00 44 1005.2
20260505212515 31 221 6.4 12.9 0.00 0.00 0.00 45 1005.4
20260505212016 31 225 3.2 12.9 0.00 0.00 0.00 48 1005.4
20260505211530 31 250 3.2 12.9 0.00 0.00 0.00 47 1005.4
20260505211016 31 223 4.8 11.3 0.00 0.00 0.00 46 1005.5
20260505210515 31 195 3.2 16.1 0.00 0.00 0.00 44 1005.5
20260505210030 32 229 8.0 16.1 0.00 0.00 0.00 45 1005.6
20260505205514 32 220 3.2 14.5 0.00 0.00 0.00 43 1005.6
20260505205017 32 203 3.2 11.3 0.00 0.00 0.00 46 1005.6
20260505204533 31 300 3.2 17.7 0.00 0.00 0.00 40 1005.5
20260505204014 32 228 8.0 17.7 0.00 0.00 0.00 42 1005.7
20260505203518 31 235 6.4 12.9 0.00 0.00 0.00 44 1005.8
20260505203030 31 342 4.8 11.3 0.00 0.00 0.00 40 1005.9
20260505202515 32 151 3.2 17.7 0.00 0.00 0.00 43 1006.0
20260505202015 32 257 6.4 17.7 0.00 0.00 0.00 41 1006.0
20260505201530 31 211 8.0 17.7 0.00 0.00 0.00 45 1006.0
20260505201015 32 288 9.7 17.7 0.00 0.00 0.00 42 1005.9
20260505200516 32 240 8.0 17.7 0.00 0.00 0.00 42 1005.9
20260505200041 32 267 8.0 22.5 0.00 0.00 0.00 42 1005.9
20260505195516 31 286 4.8 22.5 0.00 0.00 0.00 45 1005.9
20260505195015 31 213 8.0 19.3 0.00 0.00 0.00 47 1006.1
20260505194532 31 257 8.0 19.3 0.00 0.00 0.00 48 1006.1
20260505194019 31 196 9.7 20.9 0.00 0.00 0.00 48 1006.1
20260505193518 31 233 12.9 20.9 0.00 0.00 0.00 48 1006.3
20260505193035 30 182 9.7 19.3 0.00 0.00 0.00 48 1006.3
20260505192519 31 211 8.0 24.1 0.00 0.00 0.00 49 1006.4
20260505192019 31 223 9.7 24.1 0.00 0.00 0.00 50 1006.2
20260505191531 30 216 9.7 24.1 0.00 0.00 0.00 51 1006.4
20260505191021 30 222 8.0 25.7 0.00 0.00 0.00 52 1006.5
20260505190515 31 205 16.1 25.7 0.00 0.00 0.00 49 1006.6
20260505190032 31 226 8.0 25.7 0.00 0.00 0.00 52 1006.6
20260505185519 30 242 11.3 25.7 0.00 0.00 0.00 50 1006.7
20260505185022 30 245 11.3 25.7 0.00 0.00 0.00 51 1006.7
20260505184533 30 240 14.5 25.7 0.00 0.00 0.00 51 1006.8
20260505184015 30 242 14.5 24.1 0.00 0.00 0.00 53 1006.9
20260505183516 30 234 14.5 24.1 0.00 0.00 0.00 54 1007.1
20260505183046 29 244 9.7 27.4 0.00 0.00 0.00 56 1006.9
20260505182517 29 228 16.1 27.4 0.00 0.00 0.00 55 1007.0
20260505182017 29 217 12.9 25.7 0.00 0.00 0.00 55 1007.0
20260505181532 29 203 9.7 27.4 0.00 0.00 0.00 57 1007.1
20260505181017 29 254 12.9 27.4 0.00 0.00 0.00 54 1007.0
20260505180517 29 199 11.3 27.4 0.00 0.00 0.00 58 1007.1
20260505180038 29 248 9.7 20.9 0.00 0.00 0.00 59 1007.1
20260505175516 28 241 12.9 20.9 0.00 0.00 0.00 59 1007.2
20260505175016 28 290 11.3 20.9 0.00 0.00 0.00 60 1007.1
20260505174531 28 242 9.7 25.7 0.00 0.00 0.00 60 1007.1
20260505174016 28 240 12.9 25.7 0.00 0.00 0.00 58 1007.1
20260505173519 28 231 8.0 24.1 0.00 0.00 0.00 63 1007.1
20260505173029 28 212 11.3 24.1 0.00 0.00 0.00 61 1007.1
20260505172515 28 204 11.3 24.1 0.00 0.00 0.00 62 1007.2
20260505172015 28 238 6.4 19.3 0.00 0.00 0.00 64 1007.2
20260505171532 27 199 9.7 19.3 0.00 0.00 0.00 65 1007.1
20260505171016 27 178 8.0 22.5 0.00 0.00 0.00 65 1007.2
20260505170515 26 223 8.0 22.5 0.00 0.00 0.00 67 1007.2
20260505170030 26 232 14.5 22.5 0.00 0.00 0.00 67 1007.2
20260505165514 26 248 11.3 20.9 0.00 0.00 0.00 67 1007.2
20260505165014 26 204 8.0 20.9 0.00 0.00 0.00 68 1007.2
20260505164529 26 167 9.7 20.9 0.00 0.00 0.00 68 1007.2
20260505164017 26 159 8.0 19.3 0.00 0.00 0.00 69 1007.2
20260505163517 26 220 8.0 19.3 0.00 0.00 0.00 68 1007.2
20260505163032 25 186 9.7 20.9 0.00 0.00 0.00 68 1007.1
20260505162517 25 188 9.7 24.1 0.00 0.00 0.00 69 1007.1
20260505162018 25 185 9.7 24.1 0.00 0.00 0.00 70 1007.2
20260505161530 25 193 11.3 22.5 0.00 0.00 0.00 69 1007.2
20260505161017 25 221 11.3 22.5 0.00 0.00 0.00 70 1007.0
20260505160518 25 174 9.7 24.1 0.00 0.00 0.00 71 1007.0
20260505153030 24 212 11.3 25.7 0.00 0.00 0.00 74 1006.7
20260505152518 24 236 11.3 20.9 0.00 0.00 0.00 73 1006.8
20260505152017 24 217 8.0 24.1 0.00 0.00 0.00 75 1006.8
20260505151535 23 211 11.3 24.1 0.00 0.00 0.00 75 1006.8
20260505151017 23 246 12.9 25.7 0.00 0.00 0.00 75 1006.8
20260505150525 23 236 12.9 25.7 0.00 0.00 0.00 76 1006.8
20260505140518 21 208 9.7 25.7 0.00 0.00 0.00 81 1006.5
20260505125018 19 182 6.4 20.9 0.00 0.00 0.00 87 1006.1
20260505124537 19 169 8.0 20.9 0.00 0.00 0.00 87 1006.1
20260505124017 18 207 4.8 14.5 0.00 0.00 0.00 88 1006.1
20260505123524 18 189 4.8 14.5 0.00 0.00 0.00 88 1006.0
20260505123031 18 215 6.4 19.3 0.00 0.00 0.00 88 1005.9
20260505122520 18 188 4.8 19.3 0.00 0.00 0.00 88 1005.8
20260505122015 18 196 4.8 14.5 0.00 0.00 0.00 88 1005.8
20260505121537 18 200 6.4 17.7 0.00 0.00 0.00 88 1005.9
20260505121018 18 182 6.4 17.7 0.00 0.00 0.00 88 1005.8
20260505120520 18 221 4.8 14.5 0.00 0.00 0.00 88 1005.7
20260505120043 18 199 4.8 16.1 0.00 0.00 0.00 88 1005.7
20260505115521 18 203 4.8 16.1 0.00 0.00 0.00 88 1005.6
20260505115018 18 186 4.8 16.1 0.00 0.00 0.00 88 1005.6
20260505114537 18 194 4.8 14.5 0.00 0.00 0.00 87 1005.7
20260505114014 18 202 4.8 19.3 0.00 0.00 0.00 87 1005.7
20260505113517 18 180 4.8 19.3 0.00 0.00 0.00 87 1005.7
20260505113034 18 189 3.2 19.3 0.00 0.00 0.00 87 1005.5
20260505112517 18 214 6.4 19.3 0.00 0.00 0.00 87 1005.5
20260505112014 18 193 4.8 17.7 0.00 0.00 0.00 87 1005.4
20260505111533 18 221 6.4 17.7 0.00 0.00 0.00 86 1005.5
20260505111018 18 207 6.4 17.7 0.00 0.00 0.00 86 1005.4
20260505110518 18 196 6.4 19.3 0.00 0.00 0.00 86 1005.4
20260505102016 19 202 6.4 19.3 0.00 0.00 0.00 84 1005.5
20260505101545 19 221 8.0 19.3 0.00 0.00 0.00 84 1005.5
20260505101017 19 196 6.4 19.3 0.00 0.00 0.00 84 1005.6
20260505100517 19 164 6.4 19.3 0.00 0.00 0.00 84 1005.4
20260505100037 19 151 6.4 19.3 0.00 0.00 0.00 84 1005.5
20260505095515 19 216 6.4 17.7 0.00 0.00 0.00 84 1005.4
20260505095015 19 162 6.4 16.1 0.00 0.00 0.00 84 1005.5
20260505094537 19 184 6.4 19.3 0.00 0.00 0.00 84 1005.5
20260505094015 19 222 6.4 19.3 0.00 0.00 0.00 84 1005.6
20260505093515 19 156 6.4 17.7 0.00 0.00 0.00 83 1005.8
20260505093033 19 200 6.4 17.7 0.00 0.00 0.00 83 1005.7
20260505092518 19 169 6.4 17.7 0.00 0.00 0.00 83 1005.6
20260505092016 19 188 6.4 16.1 0.00 0.00 0.00 83 1005.6
20260505091535 19 205 4.8 14.5 0.00 0.00 0.00 83 1005.8
20260505091015 20 215 6.4 16.1 0.00 0.00 0.00 83 1005.8
20260505090515 20 198 4.8 17.7 0.00 0.00 0.00 83 1005.8
20260505090031 20 166 6.4 17.7 0.00 0.00 0.00 82 1006.0
20260505085517 20 249 8.0 17.7 0.00 0.00 0.00 82 1006.0
20260505085015 20 181 4.8 16.1 0.00 0.00 0.00 82 1005.9
20260505084531 20 207 6.4 16.1 0.00 0.00 0.00 82 1006.0
20260505084016 20 208 4.8 17.7 0.00 0.00 0.00 82 1006.0
20260505083515 20 204 6.4 20.9 0.00 0.00 0.00 82 1006.0
20260505083031 20 184 8.0 20.9 0.00 0.00 0.00 82 1006.1
20260505082521 20 221 4.8 19.3 0.00 0.00 0.00 82 1006.1
20260505082019 20 205 4.8 19.3 0.00 0.00 0.00 81 1006.2
20260505081531 20 199 6.4 19.3 0.00 0.00 0.00 81 1006.2
20260505081021 20 192 6.4 12.9 0.00 0.00 0.00 81 1006.2
20260505080516 20 213 6.4 12.9 0.00 0.00 0.00 81 1006.2
20260505080036 20 210 4.8 12.9 0.00 0.00 0.00 81 1006.1
20260505075515 20 132 4.8 14.5 0.00 0.00 0.00 81 1006.1
20260505075019 20 215 4.8 14.5 0.00 0.00 0.00 81 1006.3
20260505074532 20 192 6.4 14.5 0.00 0.00 0.00 80 1006.4
20260505074015 20 202 3.2 16.1 0.00 0.00 0.00 80 1006.4
20260505073520 20 185 4.8 16.1 0.00 0.00 0.00 80 1006.4
20260505073031 20 228 4.8 12.9 0.00 0.00 0.00 79 1006.5
20260505072516 20 174 4.8 14.5 0.00 0.00 0.00 79 1006.7
20260505072015 21 178 4.8 17.7 0.00 0.00 0.00 78 1006.7
20260505071541 21 173 4.8 19.3 0.00 0.00 0.00 78 1006.6